Regional Weather Roundup
Issued by NWS Little Rock, AR

Home | Current Version | Previous Version | Graphics & Text | Print | Product List | Glossary On
Versions: 1 2 3 4 5 6 7 8 9 10 11 12 13 14 15 16 17 18 19 20 21 22 23 24 25 26 27
000
ASUS44 KLZK 251105
RWRLZK

WEATHER ROUNDUP FOR ARKANSAS
NATIONAL WEATHER SERVICE LITTLE ROCK AR
600 AM CDT SAT OCT 25 2014

NOTE: "FAIR" INDICATES FEW OR NO CLOUDS BELOW 12,000 FEET WITH NO
SIGNIFICANT WEATHER AND/OR OBSTRUCTIONS TO VISIBILITY.

ARZ001-003-010-029-251200-
NORTHWEST ARKANSAS

CITY           SKY/WX    TMP DP  RH WIND       PRES   REMARKS
FAYETTEVILLE   CLEAR     59  57  93 SW8       30.10R
FORT SMITH     CLEAR     58  56  93 CALM      30.10R FOG
HARRISON       CLEAR     66  60  81 W6        30.09R
BENTONVILLE    CLEAR     57  54  88 S3        30.10S
ROGERS         CLEAR     59  56  89 S5        30.11R
SILOAM SPGS    CLEAR     57  52  82 S5        30.11S
HIGHFILL       CLEAR     58  57  97 S6        30.09S
SPRINGDALE     CLEAR     57  55  94 CALM      30.12
$$

ARZ004-005-016-251200-
NORTH CENTRAL ARKANSAS

CITY           SKY/WX    TMP DP  RH WIND       PRES   REMARKS
BATESVILLE     CLEAR     57  55  94 NW3       30.07S
FLIPPIN        CLEAR     54  48  82 CALM      30.08S
MTN HOME       CLEAR     60  58  92 SW3       30.07R
$$

ARZ040-041-251200-
WEST CENTRAL ARKANSAS

CITY           SKY/WX    TMP DP  RH WIND       PRES   REMARKS
MENA           CLEAR     63  59  88 CALM      30.14R
MOUNT IDA      CLEAR     54  53  97 CALM      30.09R FOG
$$

ARZ009-017-025-026-028-251200-
NORTHEAST ARKANSAS

CITY           SKY/WX    TMP DP  RH WIND       PRES   REMARKS
CORNING        FAIR      55  55 100 SW5       30.06S
JONESBORO      CLEAR     57  55  93 SW5       30.06S
NEWPORT        CLEAR     55  54  97 S6        30.08S FOG
WALNUT RIDGE   CLEAR     55  52  88 SW5       30.06S
BLYTHEVILLE    CLEAR     57  54  89 SW7       30.07R
$$

ARZ022-023-033-042-044-251200-
CENTRAL ARKANSAS

CITY           SKY/WX    TMP DP  RH WIND       PRES   REMARKS
LITTLE ROCK    PTCLDY    58  54  86 W3        30.11R
N LITTLE ROCK    N/A     64  60  86 SW6       30.11R
JACKSONVILLE   CLEAR     51  50  94 CALM      30.09S
SEARCY         CLEAR     52  52 100 CALM      30.10R FOG
HOT SPRINGS    CLEAR     58  55  90 CALM      30.12R
RUSSELLVILLE   PTCLDY    54  53  97 CALM      30.10R FOG
$$

ARZ036-251200-
EAST ARKANSAS

CITY           SKY/WX    TMP DP  RH WIND       PRES   REMARKS
WEST MEMPHIS   CLEAR     53  53 100 S5        30.08S
$$

ARZ050-053-066-070-073-251200-
SOUTHWEST ARKANSAS

CITY           SKY/WX    TMP DP  RH WIND       PRES   REMARKS
ARKADELPHIA    FAIR      53  53 100 CALM      30.13R FOG
CAMDEN         CLEAR     50  46  87 CALM      30.13S
TEXARKANA      CLEAR     58  55  90 SW3       30.14R
EL DORADO      CLEAR     50  48  93 CALM      30.13S
DE QUEEN       FOG       54  54 100 CALM      30.12R VSB 1/4
$$

ARZ056-057-069-251200-
SOUTHEAST ARKANSAS

CITY           SKY/WX    TMP DP  RH WIND       PRES   REMARKS
PINE BLUFF     CLEAR     56  53  90 SW3       30.11R
STUTTGART      CLEAR     55  52  88 SW6       30.11S
MONTICELLO     CLEAR     58  53  84 W6        30.12R

$$





USA.gov is the U.S. government's official web portal to all federal, state and local government web resources and services.